Weather History for John Bell Williams, Raymond, MS

Change the Weather History Date:

Saturday, December 1, 2012

  Actual Average Record
Temperature  
Mean Temperature 57 °F -  
Max Temperature 75 °F - - ()
Min Temperature 39 °F - - ()
Degree Days  
Heating Degree Days 8    
Growing Degree Days 7 (Base 50)    
Moisture  
Dew Point 48 °F    
Average Humidity 78    
Maximum Humidity 100    
Minimum Humidity 41    
Precipitation  
Precipitation 0.00 in - - ()
Sea Level Pressure  
Sea Level Pressure 30.21 in    
Wind  
Wind Speed 3 mph ()    
Max Wind Speed 9 mph    
Max Gust Speed -    
Visibility 7.6 miles    
Events      
T = Trace of Precipitation, MM = Missing Value Source: Averaged Metar Reports

Daily Weather History Graph

Daily Weather History Graph

Search for Another Location

Airport:

Trip Planner

Search our weather history database for the weather conditions in past years. The results will help you decide how hot, cold, wet, or windy it might be!

Date:

Astronomy

Dec. 01, 2012 Rise Set
Actual Time 6:45 AM CST 4:56 PM CST
Civil Twilight 6:18 AM CST 5:23 PM CST
Nautical Twilight 5:48 AM CST 5:53 PM CST
Astronomical Twilight 5:18 AM CST 6:23 PM CST
Moon 7:43 PM CST (12/1) 9:00 AM CST (12/1)
Length of Visible Light 11h 04m
Length of Day
10h 10m
Waning Gibbous, 91% of the Moon is Illuminated
Dec 1
Waning Gibbous
Dec 6
Last Quarter
Dec 13
New
Dec 19
First Quarter
Dec 28
Full

Hourly Weather History & Observations

Time (CST) Temp. Windchill Dew Point Humidity Pressure Visibility Wind Dir Wind Speed Gust Speed Precip Events Conditions
12:15 AM 41.0 °F - 41.0 °F 100% 30.22 in 4.0 mi Calm Calm - N/A   Clear
12:35 AM 41.0 °F - 41.0 °F 100% 30.22 in 1.5 mi Calm Calm - N/A   Clear
12:55 AM 41.0 °F - 41.0 °F 100% 30.22 in 1.8 mi Calm Calm - N/A   Clear
1:15 AM 41.0 °F - 41.0 °F 100% 30.22 in 2.0 mi Calm Calm - N/A   Clear
1:35 AM 41.0 °F - 41.0 °F 100% 30.23 in 4.0 mi Calm Calm - N/A   Clear
1:55 AM 39.2 °F - 39.2 °F 100% 30.23 in 2.0 mi Calm Calm - N/A   Clear
2:15 AM 39.2 °F 35.9 °F 39.2 °F 100% 30.22 in 2.5 mi East 4.6 mph - N/A   Clear
2:35 AM 39.2 °F 37.0 °F 39.2 °F 100% 30.22 in 5.0 mi East 3.5 mph - N/A   Clear
2:55 AM 41.0 °F 38.0 °F 41.0 °F 100% 30.22 in 5.0 mi East 4.6 mph - N/A   Clear
3:15 AM 41.0 °F 39.0 °F 41.0 °F 100% 30.21 in 5.0 mi East 3.5 mph - N/A   Clear
3:35 AM 39.2 °F - 39.2 °F 100% 30.21 in 3.0 mi Calm Calm - N/A   Clear
3:55 AM 39.2 °F - 39.2 °F 100% 30.21 in 5.0 mi Calm Calm - N/A   Clear
4:15 AM 39.2 °F - 39.2 °F 100% 30.22 in 4.0 mi Calm Calm - N/A   Clear
4:35 AM 41.0 °F - 41.0 °F 100% 30.22 in 5.0 mi Calm Calm - N/A   Clear
4:55 AM 41.0 °F 39.0 °F 41.0 °F 100% 30.22 in 3.0 mi East 3.5 mph - N/A   Clear
5:15 AM 41.0 °F - 41.0 °F 100% 30.22 in 5.0 mi Calm Calm - N/A   Clear
5:35 AM 41.0 °F - 41.0 °F 100% 30.23 in 3.0 mi Calm Calm - N/A   Clear
5:55 AM 41.0 °F - 41.0 °F 100% 30.23 in 5.0 mi Calm Calm - N/A   Clear
6:15 AM 41.0 °F - 41.0 °F 100% 30.24 in 3.0 mi Calm Calm - N/A   Clear
6:35 AM 41.0 °F - 41.0 °F 100% 30.24 in 3.0 mi Calm Calm - N/A   Clear
6:55 AM 39.2 °F 37.0 °F 39.2 °F 100% 30.25 in 1.2 mi East 3.5 mph - N/A   Clear
7:15 AM 41.0 °F - 41.0 °F 100% 30.25 in 3.0 mi Calm Calm - N/A   Clear
7:35 AM 44.6 °F - 44.6 °F 100% 30.26 in 3.0 mi Calm Calm - N/A   Clear
7:55 AM 48.2 °F - 48.2 °F 100% 30.26 in 5.0 mi East 4.6 mph - N/A   Clear
8:15 AM 50.0 °F - 50.0 °F 100% 30.26 in 6.0 mi East 5.8 mph - N/A   Clear
8:35 AM 53.6 °F - 50.0 °F 88% 30.26 in 8.0 mi East 4.6 mph - N/A   Clear
8:55 AM 57.2 °F - 50.0 °F 77% 30.27 in 8.0 mi East 3.5 mph - N/A   Clear
9:15 AM 59.0 °F - 50.0 °F 72% 30.27 in 9.0 mi East 4.6 mph - N/A   Clear
9:35 AM 62.6 °F - 51.8 °F 68% 30.27 in 10.0 mi ESE 3.5 mph - N/A   Clear
9:55 AM 64.4 °F - 53.6 °F 68% 30.27 in 10.0 mi SSE 6.9 mph - N/A   Clear
10:15 AM 66.2 °F - 53.6 °F 64% 30.26 in 10.0 mi SE 4.6 mph - N/A   Clear
10:35 AM 68.0 °F - 51.8 °F 56% 30.26 in 10.0 mi SE 5.8 mph - N/A   Clear
10:55 AM 68.0 °F - 50.0 °F 52% 30.25 in 10.0 mi SE 5.8 mph - N/A   Clear
11:15 AM 69.8 °F - 48.2 °F 46% 30.24 in 10.0 mi SSE 6.9 mph - N/A   Clear
11:35 AM 69.8 °F - 48.2 °F 46% 30.23 in 10.0 mi SSE 5.8 mph - N/A   Clear
11:55 AM 71.6 °F - 48.2 °F 43% 30.22 in 10.0 mi South 6.9 mph - N/A   Clear
12:15 PM 71.6 °F - 50.0 °F 46% 30.21 in 10.0 mi SSE 4.6 mph - N/A   Clear
12:35 PM 71.6 °F - 51.8 °F 50% 30.20 in 10.0 mi SE 4.6 mph - N/A   Clear
12:55 PM 71.6 °F - 50.0 °F 46% 30.20 in 10.0 mi SSW 3.5 mph - N/A   Clear
1:15 PM 73.4 °F - 51.8 °F 47% 30.19 in 10.0 mi South 4.6 mph - N/A   Clear
1:35 PM 73.4 °F - 50.0 °F 44% 30.18 in 10.0 mi South 8.1 mph - N/A   Clear
1:55 PM 73.4 °F - 51.8 °F 47% 30.18 in 10.0 mi ESE 3.5 mph - N/A   Clear
2:15 PM 73.4 °F - 50.0 °F 44% 30.17 in 10.0 mi South 9.2 mph - N/A   Clear
2:35 PM 75.2 °F - 50.0 °F 41% 30.17 in 10.0 mi SSE 8.1 mph - N/A   Clear
2:55 PM 73.4 °F - 50.0 °F 44% 30.17 in 10.0 mi South 9.2 mph - N/A   Clear
3:15 PM 73.4 °F - 50.0 °F 44% 30.17 in 10.0 mi SSE 9.2 mph - N/A   Clear
3:35 PM 73.4 °F - 50.0 °F 44% 30.17 in 10.0 mi SSE 8.1 mph - N/A   Clear
3:55 PM 71.6 °F - 51.8 °F 50% 30.17 in 10.0 mi SSE 6.9 mph - N/A   Clear
4:15 PM 71.6 °F - 51.8 °F 50% 30.17 in 10.0 mi SE 5.8 mph - N/A   Clear
4:35 PM 68.0 °F - 50.0 °F 52% 30.17 in 10.0 mi ESE 5.8 mph - N/A   Clear
4:55 PM 64.4 °F - 50.0 °F 59% 30.17 in 10.0 mi ESE 5.8 mph - N/A   Clear
5:15 PM 62.6 °F - 50.0 °F 63% 30.17 in 10.0 mi ESE 4.6 mph - N/A   Clear
5:55 PM 57.2 °F - 50.0 °F 77% 30.17 in 10.0 mi ESE 6.9 mph - N/A   Clear
6:15 PM 57.2 °F - 50.0 °F 77% 30.17 in 10.0 mi ESE 5.8 mph - N/A   Clear
6:35 PM 57.2 °F - 50.0 °F 77% 30.18 in 10.0 mi ESE 4.6 mph - N/A   Clear
6:55 PM 57.2 °F - 50.0 °F 77% 30.18 in 10.0 mi ESE 4.6 mph - N/A   Clear
7:15 PM 57.2 °F - 50.0 °F 77% 30.18 in 10.0 mi ESE 4.6 mph - N/A   Clear
7:55 PM 53.6 °F - 50.0 °F 88% 30.18 in 10.0 mi ESE 5.8 mph - N/A   Clear
8:15 PM 59.0 °F - 55.4 °F 88% 30.19 in 10.0 mi SE 5.8 mph - N/A   Clear
8:35 PM 62.6 °F - 57.2 °F 82% 30.19 in 10.0 mi SSE 9.2 mph - N/A   Clear
8:55 PM 62.6 °F - 57.2 °F 82% 30.19 in 10.0 mi SSE 9.2 mph - N/A   Clear
9:15 PM 62.6 °F - 57.2 °F 82% 30.19 in 10.0 mi SSE 6.9 mph - N/A   Clear
9:35 PM 60.8 °F - 57.2 °F 88% 30.20 in 10.0 mi SSE 5.8 mph - N/A   Clear
9:55 PM 59.0 °F - 57.2 °F 94% 30.20 in 10.0 mi SSE 6.9 mph - N/A   Clear
10:15 PM 59.0 °F - 57.2 °F 94% 30.20 in 10.0 mi SSE 6.9 mph - N/A   Clear
10:35 PM 60.8 °F - 59.0 °F 94% 30.20 in 10.0 mi SSE 6.9 mph - N/A   Clear
10:55 PM 60.8 °F - 59.0 °F 94% 30.20 in 10.0 mi SE 4.6 mph - N/A   Clear
11:15 PM 59.0 °F - 59.0 °F 100% 30.20 in 10.0 mi SE 4.6 mph - N/A   Clear
11:55 PM 60.8 °F - 59.0 °F 94% 30.19 in 10.0 mi SSE 8.1 mph - N/A   Clear